Location: Domont
(49.0278°N, 2.3264°E)
Time: 11:49:54
(UTC+00:00)

H-2A R/B - Pass Details

Date: 06 June 2022
Orbit: 576 x 653 km, 98.5° (Epoch: 30 June)

Event Time Altitude Azimuth Distance (km) Brightness Sun altitude
Rises 21:55:28 0° 356° (N) 2,810 6.8 -13.9°
Reaches altitude 10° 21:59:18 10° 319° (NW) 1,915 5.9 -14.2°
Maximum altitude 22:00:17 11° 305° (NW) 1,869 5.5 -14.2°
Drops below altitude 10° 22:01:15 10° 291° (WNW) 1,920 5.3 -14.3°
Sets 22:05:09 0° 254° (WSW) 2,833 5.6 -14.6°
